Regional Weather Roundup
Issued by NWS

Home | Current Version | Previous Version | Text Only | Print | Product List | Glossary Off
Versions: 1 2 3 4 5 6 7 8 9 10 11 12 13 14 15 16 17 18 19 20 21 22 23 24 25 26 27 28 29 30 31 32 33 34 35 36 37 38 39 40 41 42 43 44 45 46 47 48 49 50

000
ASUS43 KMPX 281010
RWRMN
WEATHER ROUNDUP FOR MINNESOTA
NATIONAL WEATHER SERVICE TWIN CITIES/CHANHASSEN MN
400 AM CST FRI NOV 28 2014


NOTE: "FAIR" INDICATES FEW OR NO CLOUDS BELOW 12,000 FEET WITH NO
SIGNIFICANT WEATHER AND/OR OBSTRUCTIONS TO VISIBILITY. N/A MEANS
CURRENT SKY AND/OR WEATHER CONDITIONS ARE NOT AVAILABLE.

MNZ060>063-068>070-281100-
   Twin Cities Metro

CITY           SKY/WX    TMP DP  RH WIND       PRES   REMARKS
TWIN CITIES    CLOUDY    10   6  84 SE12      30.10F WCI  -5
ST PAUL        CLOUDY    11   7  84 SE13      30.13F WCI  -4
CRYSTAL        CLOUDY    12   6  77 SE12      30.08F WCI  -2
BLAINE         FLURRIES  12   9  85 E7        30.08F WCI   2
LAKEVILLE      CLOUDY     9   7  92 SE9       30.07F WCI  -5
EDEN PRAIRIE   CLOUDY    11   6  81 SE10      30.08F WCI  -3
SOUTH ST PAUL  CLOUDY    11   7  82 SE8       30.11F WCI   0
LAKE ELMO      CLOUDY    12   9  85 SE8       30.12F WCI   1
$$
MNZ001>005-007-008-013>017-022>024-027-028-281100-
   Northwest Minnesota

CITY           SKY/WX    TMP DP  RH WIND       PRES   REMARKS
BEMIDJI        CLOUDY     7   2  80 E7        30.04S WCI  -4
HALLOCK        FLURRIES  10   5  79 E7        30.05F WCI   0
ROSEAU         CLOUDY     9   1  72 SE6       30.06F WCI  -1
WARROAD        CLOUDY     7   1  78 SE5       30.07F WCI  -2
THIEF RVR FALL CLOUDY    10   3  72 E9        30.04S WCI  -2
CROOKSTON      CLOUDY    12   7  79 SE7       30.05S WCI   2
FOSSTON        CLOUDY     9   3  78 E7        30.00F WCI  -3
DETROIT LAKES  PTCLDY    10   7  85 SE13      29.98F WCI  -5
MOORHEAD       MIX PCPN  12   9  85 S10       30.03R WCI  -1
PARK RAPIDS    CLOUDY     8   3  80 E6        30.00F WCI  -2
MAHNOMEN       CLOUDY    10   4  77 E7        30.00F WCI  -1
$$
MNZ006-009>011-018-025>026-281100-
   North Central Minnesota

CITY           SKY/WX    TMP DP  RH WIND       PRES   REMARKS
BAUDETTE       MOCLDY     4  -2  76 SE3       30.08F
FLAG ISLAND    PTCLDY     3   0  85 CALM      30.08F
INTL FALLS     CLOUDY     5  -2  72 SE5       30.09F WCI  -4
WASKISH        FLURRIES   9   3  78 CALM      30.06F
BIG FORK       LGT SNOW   9   1  72 SE5       30.08F WCI   0
LONGVILLE      FLURRIES   7   3  85 E5        30.04F WCI  -2
GRAND RAPIDS   CLOUDY     7   1  78 E5        30.06F WCI  -2
CRANE LAKE     CLOUDY     3  -2  78 CALM      30.13F
ORR            CLOUDY     7  -4  61 CALM      30.06F
COOK           FLURRIES   7  -2  66 S3        30.10F
WALKER         FLURRIES   7   2  80 E5        30.04F WCI  -2
$$
MNZ012-019>021-037-281100-
   Northeast Minnesota

CITY           SKY/WX    TMP DP  RH WIND       PRES   REMARKS
DULUTH         FLURRIES   6   0  76 SE5       30.10F WCI  -3
ELY            CLOUDY     5  -2  72 CALM      30.11F
HIBBING        CLOUDY     7  -1  70 SE7       30.10F WCI  -5
EVELETH        FLURRIES   7   0  72 CALM      30.12S
DULUTH HARBOR  CLOUDY     9   3  78 CALM      30.20F
TWO HARBORS    CLOUDY    12   1  62 CALM      30.14S
SILVER BAY     MOCLDY    10   1  67 CALM      30.13F
GRAND MARAIS     N/A     13   5  70 NW5       30.20F WCI   5
G MARAIS ARPRT LGT SNOW   3  -6  66 CALM      30.09F
$$
MNZ029>031-032-039>041-046>048-054>057-064-281100-
   West Central Minnesota

CITY           SKY/WX    TMP DP  RH WIND       PRES   REMARKS
FERGUS FALLS   CLOUDY    10   1  67 S12       30.03S WCI  -4
WHEATON        PTCLDY     7   1  78 SE13      30.01R WCI  -9
MORRIS         PTCLDY     7   1  78 SE16G24   29.98S WCI -11
ALEXANDRIA     CLOUDY     8   3  80 SE14      29.98F WCI  -8
ELBOW LAKE     CLOUDY    10   3  75 SE16G23   29.98F WCI  -8
WADENA         FLURRIES   7   1  78 SE9       30.00S WCI  -7
GLENWOOD       PTCLDY     9   3  78 SE10      29.99F WCI  -6
APPLETON       PTCLDY     9   3  78 SE12      29.99F WCI  -6
BENSON         PTCLDY     9   3  78 S16       29.98F WCI  -9
ORTONVILLE     CLEAR      7   0  72 SE8       29.97F WCI  -6
MADISON        CLEAR     10   7  85 SE12      29.99R WCI  -4
WILLMAR        FAIR       9   3  78 SE17      30.01F WCI -10
$$
MNZ033>034-036-042>043-049>051-058-059-281100-
   Central Minnesota

CITY           SKY/WX    TMP DP  RH WIND       PRES   REMARKS
ST CLOUD       CLOUDY    10   4  76 SE10      30.04F WCI  -4
SAUK CENTRE    CLOUDY     8   3  82 SE12      30.01F WCI  -7
PAYNESVILLE    CLOUDY     6   3  88 E12G17    30.01F WCI -10
AITKIN         MIX PCPN  10   3  72 E5        30.06F WCI   2
PINE RIVER     FLURRIES   7   3  85 E8        30.06F WCI  -6
BRAINERD       CLOUDY     7   3  84 E5        30.04F WCI  -2
STAPLES        CLOUDY     7   3  85 SE7       30.02F WCI  -5
LONG PRAIRIE   CLOUDY     7   3  85 SE7       30.01F WCI  -5
LITTLE FALLS   FLURRIES   9   3  78 SE8       30.04F WCI  -4
LITCHFIELD     CLOUDY    10   7  85 SE10      30.03F WCI  -3
BUFFALO        CLOUDY    10   6  82 SE8       30.09F WCI  -2
MAPLE LAKE     FLURRIES  11   8  86 SE7       30.07F WCI   0
$$
MNZ037-044-045-052-053-281100-
   East Central Minnesota

CITY           SKY/WX    TMP DP  RH WIND       PRES   REMARKS
PRINCETON      CLOUDY     9   5  85 E9        30.07F WCI  -5
MORA             N/A    N/A N/A N/A MISG        N/A
CAMBRIDGE      LGT SNOW  10   3  72 SE6       30.07F WCI   1
RUSH CITY      CLOUDY     9   5  85 E6        30.11F WCI  -1
MOOSE LAKE     FLURRIES  10   3  72 CALM      30.11F
HINCKLEY       FLURRIES  10   5  79 E6        30.11F WCI   1
CLOQUET        FLURRIES   7   1  78 SE5       30.11F WCI  -2
MCGREGOR       CLOUDY    10   5  79 E6        30.10F WCI   1
$$
MNZ071>073-080-081-089-090-097-098-281100-
   Southwest Minnesota

CITY           SKY/WX    TMP DP  RH WIND       PRES   REMARKS
MONTEVIDEO     PTCLDY     9   3  78 S14       29.99F WCI  -8
GRANITE FALLS  PTCLDY     9   4  79 E9        30.00F WCI  -4
CANBY          CLEAR     10   6  87 E5        29.97S WCI   1
MARSHALL       CLEAR     12   5  73 SE14      29.94F WCI  -3
REDWOOD FALLS  CLEAR     10   4  76 SE12      30.00F WCI  -5
OLIVIA         PTCLDY    10   5  79 SE9       30.00F WCI  -2
PIPESTONE      CLEAR     16  12  86 S10       29.88F WCI   3
WINDOM         CLEAR     12   9  85 E3        29.96F
WORTHINGTON    CLEAR     12   9  85 S8        29.93F WCI   1
JACKSON        CLEAR     14  10  85 S10       29.95F WCI   1
TRACY          CLEAR     13   8  82 SE8       29.94F WCI   1
SLAYTON        CLEAR     12  10  89 SE10      29.92F WCI  -1
$$
MNZ065>067-074>077-082>085-091>093-281100-
   South Central Minnesota

CITY           SKY/WX    TMP DP  RH WIND       PRES   REMARKS
MANKATO        CLOUDY    12   3  67 SE16      30.02F WCI  -4
NEW ULM        PTCLDY    10   5  79 SE9       30.03F WCI  -2
ST JAMES       MOCLDY    16   9  73 SE10      30.02F WCI   3
FAIRMONT       CLOUDY    14   7  73 SE17      29.98F WCI  -3
GLENCOE        PTCLDY    10   7  88 E8        30.06F WCI  -3
FARIBAULT      MOCLDY    12   7  79 SE10      30.07F WCI  -1
OWATONNA       CLOUDY    14   7  73 SE14      30.04F WCI  -1
WASECA         CLOUDY    12   3  67 SE18      30.05F WCI  -5
ALBERT LEA     MOCLDY    12   7  79 SE16      30.04F WCI  -4
$$
MNZ078>079-086>088-094>096-281100-
   Southeast Minnesota

CITY           SKY/WX    TMP DP  RH WIND       PRES   REMARKS
ROCHESTER      CLOUDY    11   7  84 SE21      30.09F WCI  -8
RED WING       CLOUDY    12   7  79 SE14      30.13F WCI  -3
STANTON        CLOUDY    13   8  79 SE9       30.07F WCI   1
DODGE CENTER   CLOUDY    12   9  85 SE18      30.05F WCI  -5
WINONA         LGT SNOW  14  12  92 SE9       30.20F WCI   2
AUSTIN         CLOUDY    12   5  73 SE14      30.07F WCI  -3
PRESTON        CLOUDY    11   7  85 SE10      30.13F WCI  -3
$$
ABBREVIATIONS USED IN REMARKS
   TC - TEMPERATURES IN CELSIUS
  WCI - WIND CHILL INDEX
   HX - HEAT INDEX
  VSB - VISIBILITY
$$


USA.gov is the U.S. government's official web portal to all federal, state and local government web resources and services.